Flight Track Log - Related Links

Times and Time Zones

All times are in EDT time to prevent confusion due to time zone crossing. See the AWI4022 flight status page for this flight to view local times or setup timezone preferences in your user account.

Time Position Orientation Groundspeed Altitude Reporting Facility
EDT Latitude Longitude Course Direction KTS MPH feet Rate Location/Type
Fri 09:36:38 AM 41.9283 -72.7019 270° West 150 173 1,200  Level Boston Center
Fri 09:37:32 AM 41.9236 -72.7581 254° West 174 200 3,100 2,103 Climbing Boston Center
Fri 09:38:35 AM 41.9219 -72.8331 268° West 197 227 5,300 2,177 Climbing Boston Center
Fri 09:39:00 AM 41.9145 -73.0306 265° West  Level FlightAware Approximate
Fri 09:39:36 AM 41.9211 -72.9206 269° West 229 264 7,600  Level Boston Center
Fri 09:40:00 AM 41.9061 -73.1481 265° West  Level FlightAware Approximate
Fri 09:40:37 AM 41.9189 -73.0194 268° West 241 277 9,900  Level Boston Center
Fri 09:41:00 AM 41.9000 -73.2658 270° West  Level FlightAware Approximate
Fri 09:41:39 AM 41.9028 -73.1097 257° West 249 287 11,500  Level Boston Center
Fri 09:42:40 AM 41.8769 -73.2064 250° West 273 314 13,700 2,164 Climbing Boston Center
Fri 09:43:41 AM 41.8506 -73.3078 251° West 287 330 15,900 1,967 Climbing Boston Center
Fri 09:44:42 AM 41.8206 -73.4150 249° West 298 343 17,700 1,672 Climbing Boston Center
Fri 09:45:43 AM 41.7739 -73.4956 232° Southwest 314 361 19,300 1,525 Climbing Boston Center
Fri 09:46:44 AM 41.6892 -73.5361 200° South 318 366 20,800 1,377 Climbing Boston Center
Fri 09:47:45 AM 41.6011 -73.5794 200° South 330 380 22,100 1,525 Climbing Boston Center
Fri 09:48:46 AM 41.5097 -73.6256 201° Southwest 342 394 23,900 934 Climbing Boston Center
Fri 09:49:47 AM 41.4047 -73.6778 200° South 342 394 24,000 49 Climbing Boston Center
Fri 09:50:49 AM 41.3153 -73.7192 199° South 342 394 24,000  Level Boston Center
Fri 09:51:50 AM 41.2219 -73.7653 200° South 352 405 24,000  Level Boston Center
Fri 09:52:51 AM 41.1392 -73.8228 208° Southwest 351 404 24,000  Level Boston Center
Fri 09:53:30 AM 41.1039 -73.8828 232° Southwest 338 389 24,000  Level New York Center
Fri 09:54:30 AM 41.0472 -73.9792 232° Southwest 333 383 24,000  Level New York Center
Fri 09:55:30 AM 40.9883 -74.0753 231° Southwest 339 390 24,000  Level New York Center
Fri 09:56:30 AM 40.9314 -74.1714 232° Southwest 344 396 24,000  Level New York Center
Fri 09:57:30 AM 40.8744 -74.2644 231° Southwest 338 389 24,000  Level New York Center
Fri 09:58:30 AM 40.8156 -74.3575 230° Southwest 338 389 24,000  Level New York Center
Fri 09:59:30 AM 40.7606 -74.4478 231° Southwest 333 383 24,000  Level New York Center
Fri 10:00:30 AM 40.7100 -74.5353 233° Southwest 322 371 24,000  Level New York Center
Fri 10:01:30 AM 40.6572 -74.6200 231° Southwest 315 362 24,000  Level New York Center
Fri 10:02:30 AM 40.6044 -74.7017 230° Southwest 310 357 24,000  Level New York Center
Fri 10:03:30 AM 40.5517 -74.7889 231° Southwest 310 357 24,000  Level New York Center
Fri 10:04:30 AM 40.4944 -74.8700 227° Southwest 310 357 24,000 -50 Level New York Center
Fri 10:05:30 AM 40.4356 -74.9511 226° Southwest 310 357 23,900 -550 Descending New York Center
Fri 10:06:30 AM 40.3717 -75.0425 227° Southwest 325 374 22,900 -950 Descending New York Center
Fri 10:07:30 AM 40.3081 -75.1311 227° Southwest 335 386 22,000 -450 Descending New York Center
Fri 10:08:30 AM 40.2442 -75.2222 227° Southwest 335 386 22,000  Level New York Center
Fri 10:09:30 AM 40.1803 -75.3133 227° Southwest 335 386 22,000  Level New York Center
Fri 10:10:30 AM 40.1142 -75.4042 226° Southwest 340 391 22,000  Level New York Center
Fri 10:11:30 AM 40.0481 -75.4972 227° Southwest 340 391 22,000  Level New York Center
Fri 10:12:30 AM 39.9731 -75.5978 226° Southwest 351 404 22,000 -550 Level New York Center
Fri 10:13:30 AM 39.9111 -75.6856 227° Southwest 351 404 20,900 -1,500 Descending New York Center
Fri 10:14:30 AM 39.8508 -75.7761 229° Southwest 345 397 19,000 -1,750 Descending New York Center
Fri 10:15:30 AM 39.8036 -75.8564 233° Southwest 329 379 17,400 -1,950 Descending New York Center
Fri 10:16:30 AM 39.7497 -75.9444 231° Southwest 302 348 15,100 -1,900 Descending New York Center
Fri 10:17:30 AM 39.6964 -76.0242 229° Southwest 302 348 13,600 -1,400 Descending New York Center
Fri 10:18:30 AM 39.6489 -76.1042 232° Southwest 293 337 12,300 -485 Descending New York Center
Fri 10:20:48 AM 39.5333 -76.2833 230° Southwest 292 336 12,000 -91 Descending Potomac TRACON
Fri 10:21:48 AM 39.4833 -76.3667 232° Southwest 298 343 12,000  Level Potomac TRACON
Fri 10:22:48 AM 39.4167 -76.4500 224° Southwest 299 344 12,000 -524 Level Potomac TRACON
Fri 10:23:54 AM 39.3500 -76.5000 210° Southwest 277 319 10,900 -952 Descending Potomac TRACON
Fri 10:24:54 AM 39.2833 -76.5667 218° Southwest 258 297 10,000 -470 Descending Potomac TRACON
Fri 10:25:49 AM 39.2333 -76.6000 207° Southwest 242 278 10,000  Level Potomac TRACON
Fri 10:26:49 AM 39.1833 -76.6500 218° Southwest 250 288 10,000  Level Potomac TRACON
Fri 10:27:49 AM 39.1333 -76.7167 226° Southwest 232 267 10,000  Level Potomac TRACON
Fri 10:28:49 AM 39.0833 -76.7667 218° Southwest 241 277 10,000 -850 Level Potomac TRACON
Fri 10:29:49 AM 39.0333 -76.8333 226° Southwest 243 280 8,300 -1,835 Descending Potomac TRACON
Fri 10:30:50 AM 38.9667 -76.9000 218° Southwest 255 293 6,300 -1,140 Descending Potomac TRACON
Fri 10:31:50 AM 38.9667 -77.0000 270° West 261 300 6,000 -150 Descending Potomac TRACON
Fri 10:32:50 AM 39.0000 -77.0667 303° West 232 267 6,000 -263 Level Potomac TRACON
Fri 10:33:44 AM 39.0333 -77.1000 322° Northwest 177 204 5,500 -947 Descending Potomac TRACON
Fri 10:34:44 AM 39.0667 -77.1500 311° West 174 200 4,200 -1,250 Descending Potomac TRACON
Fri 10:35:44 AM 39.0167 -77.1833 207° Southwest 166 191 3,000 -650 Descending Potomac TRACON
Fri 10:36:44 AM 38.9833 -77.1667 159° South 191 220 2,900 -446 Descending Potomac TRACON
Fri 10:37:45 AM 38.9333 -77.1167 142° Southeast 179 206 2,100 -835 Descending Potomac TRACON
Fri 10:38:39 AM 38.9000 -77.0833 142° Southeast 181 208 1,300 -789 Descending Potomac TRACON
Fri 10:39:39 AM 38.8833 -77.0500 123° Southeast 142 163 600 -700 Descending Potomac TRACON
Fri 10:41:00 AM 38.8519 -77.0377 180° South  Level Estimated

Login

Don't have an account? Register now (free) for customized features, flight alerts, and more!